Flag for Brazil Weather past 2 weeks in Belém, Para, Brazil

Now
75 °F

Clear.


Feels Like: 75 °F
Forecast: 75 / 88 °F
Wind: 7 mph from East

Location: Belem Aeroporto

Current Time: Dec 27, 2014 at 4:25:36 AM

Latest Report: Dec 27, 2014 at 3:00 AM


Visibility: 10 mi

Pressure: 29.83 "Hg

Humidity: 89%

Dew point: 72 °F

Location of BelémLocation

Historic Weather in Belém — Graph

°F

Belém temperature yesterday

Maximum temperature yesterday: 90 °F (at 1:00 PM)
Minimum temperature yesterday: 75 °F (at 4:00 AM)
Average temperature yesterday: 81 °F

Past Weeks' High & Low Weather Summary

 TemperatureHumidityPressure
High91 °F (Dec 12, 1:00 PM)100% (Dec 12, 3:00 PM)29.95 "Hg (Dec 12, 3:00 PM)
Low48 °F (Dec 12, 3:00 PM)49% (Dec 12, 1:00 PM)29.74 "Hg (Dec 13, 5:00 PM)
Average81 °F77%29.84 "Hg
* Reported Dec 12 3:00 AM — Dec 27 3:00 AM, Belém, Weather by CustomWeather, © 2014

Note: Actual official high and low records may vary slightly from our data, if they occured in-between our weather recording intervals... More about our weather records

Advertising

Belém weather history for previous 24 hours

 ConditionsComfort  
Time TempWeatherWind HumidityBarometerVisibility
3:00 AM
Dec 27
75 °FClear.7 mph89%29.83 "Hg10 mi
2:00 AM75 °FClear.8 mph89%29.83 "Hg10 mi
1:00 AM77 °FClear.10 mph79%29.86 "Hg10 mi
12:00 AM77 °FClear.12 mph79%29.89 "Hg10 mi
11:00 PM
Dec 26
79 °FClear.9 mph74%29.89 "Hg10 mi
10:00 PM81 °FClear.12 mph70%29.89 "Hg10 mi
9:00 PM81 °FPassing clouds.13 mph70%29.89 "HgN/A
8:00 PM82 °FPassing clouds.8 mph70%29.86 "HgN/A
7:00 PM84 °FPartly cloudy.6 mph74%29.83 "HgN/A
6:00 PM82 °FBroken clouds.7 mph84%29.83 "HgN/A
5:00 PM79 °FLight rain. Partly sunny.6 mph84%N/AN/A
4:00 PM86 °FBroken clouds.12 mph75%29.83 "HgN/A
3:00 PM86 °FScattered clouds.9 mph70%29.86 "HgN/A
2:00 PM86 °FBroken clouds.7 mph70%29.86 "HgN/A
1:00 PM90 °FPartly sunny.13 mph49%29.89 "HgN/A
12:00 PM88 °FScattered clouds.13 mph55%29.92 "HgN/A
11:00 AM86 °FScattered clouds.14 mph62%29.95 "HgN/A
10:00 AM84 °FScattered clouds.15 mph66%29.95 "HgN/A
9:00 AM82 °FPartly sunny.12 mph70%29.92 "HgN/A
8:00 AM77 °FSunny.5 mph83%29.92 "Hg10 mi
7:00 AM75 °FSunny.5 mph89%29.89 "Hg10 mi
6:00 AM75 °FClear.5 mph89%29.86 "Hg10 mi
5:00 AM75 °FClear.2 mph89%29.86 "Hg10 mi
4:00 AM75 °FClear.5 mph89%29.86 "Hg10 mi
Weather by CustomWeather, © 2014

See weather overviewHow to use our weather pages